Location: Bellerive
(46.9237°N, 7.0223°E)
Time: 21:12:04
(UTC+00:00)

Cosmos 1953 Rocket - Pass Details

Date: 09 April 2020
Orbit: 604 x 635 km, 82.5° (Epoch: 02 June)

Event Time Altitude Azimuth Distance (km) Brightness Sun altitude
Rises 19:26:00 0° 346° (NNW) 2,938 7.7 -12.6°
Reaches altitude 10° 19:28:17 10° 342° (NNW) 2,028 6.9 -12.9°
Maximum altitude 19:32:40 54° 266° (W) 775 4.4 -13.6°
Drops below altitude 10° 19:37:02 10° 189° (S) 2,017 6.0 -14.3°
Sets 19:39:18 0° 185° (S) 2,920 6.8 -14.6°
